TA3ONK-13 Weather Reports


time (UTC)temp
F
wind
direction
speed
knots
gust
knots
rain 1hr
in
rain 24hr
in
rain mn
in
humidity
%
barometer
mb
20260508062803 83 0 0.0 0.0 0.00 0.00 0.00 39 1018.0
20260508061303 82 0 0.0 0.0 0.00 0.00 0.00 40 1018.1
20260508055804 84 0 0.0 0.0 0.00 0.00 0.00 36 1018.1
20260508052804 84 0 0.0 0.0 0.00 0.00 0.00 37 1018.1
20260508051305 83 0 0.0 0.0 0.00 0.00 0.00 36 1018.0
20260508045804 82 0 0.0 0.0 0.00 0.00 0.00 37 1017.9
20260508044305 82 0 0.0 0.0 0.00 0.00 0.00 38 1017.8
20260508042804 77 0 0.0 0.0 0.00 0.00 0.00 40 1017.9
20260508041304 83 0 0.0 0.0 0.00 0.00 0.00 34 1017.7
20260508035805 84 0 0.0 0.0 0.00 0.00 0.00 35 1017.7
20260508034303 84 0 0.0 0.0 0.00 0.00 0.00 36 1017.6
20260508032805 84 0 0.0 0.0 0.00 0.00 0.00 34 1017.4
20260508031304 84 0 0.0 0.0 0.00 0.00 0.00 34 1017.4
20260508025804 84 0 0.0 0.0 0.00 0.00 0.00 34 1017.6
20260508024304 86 0 0.0 0.0 0.00 0.00 0.00 34 1017.7
20260508022805 86 0 0.0 0.0 0.00 0.00 0.00 34 1017.7
20260508021304 87 0 0.0 0.0 0.00 0.00 0.00 34 1017.7
20260508015804 87 0 0.0 0.0 0.00 0.00 0.00 33 1017.8
20260508014305 86 0 0.0 0.0 0.00 0.00 0.00 33 1017.9
20260508012804 87 0 0.0 0.0 0.00 0.00 0.00 33 1017.8
20260508011304 83 0 0.0 0.0 0.00 0.00 0.00 33 1017.7
20260508005805 85 0 0.0 0.0 0.00 0.00 0.00 33 1017.8
20260508004305 87 0 0.0 0.0 0.00 0.00 0.00 35 1017.9
20260508002804 87 0 0.0 0.0 0.00 0.00 0.00 35 1018.0
20260508001305 87 0 0.0 0.0 0.00 0.00 0.00 35 1018.1
20260507235804 87 0 0.0 0.0 0.00 0.00 0.00 35 1018.1
20260507234305 87 0 0.0 0.0 0.00 0.00 0.00 34 1018.1
20260507232804 83 0 0.0 0.0 0.00 0.00 0.00 38 1018.3
20260507231302 83 0 0.0 0.0 0.00 0.00 0.00 38 1018.4
20260507225805 85 0 0.0 0.0 0.00 0.00 0.00 36 1018.5
20260507224304 88 0 0.0 0.0 0.00 0.00 0.00 35 1018.3
20260507222803 88 0 0.0 0.0 0.00 0.00 0.00 35 1018.4
20260507221304 86 0 0.0 0.0 0.00 0.00 0.00 35 1018.5
20260507215805 83 0 0.0 0.0 0.00 0.00 0.00 39 1018.6
20260507214305 86 0 0.0 0.0 0.00 0.00 0.00 35 1018.6
20260507212804 85 0 0.0 0.0 0.00 0.00 0.00 38 1018.7
20260507211305 85 0 0.0 0.0 0.00 0.00 0.00 38 1018.6
20260507205805 88 0 0.0 0.0 0.00 0.00 0.00 36 1018.7
20260507204304 86 0 0.0 0.0 0.00 0.00 0.00 38 1018.8
20260507202803 87 0 0.0 0.0 0.00 0.00 0.00 38 1019.0
20260507201304 87 0 0.0 0.0 0.00 0.00 0.00 38 1018.9
20260507195804 85 0 0.0 0.0 0.00 0.00 0.00 40 1019.2
20260507194304 85 0 0.0 0.0 0.00 0.00 0.00 40 1019.2
20260507192805 84 0 0.0 0.0 0.00 0.00 0.00 42 1019.3
20260507191304 84 0 0.0 0.0 0.00 0.00 0.00 41 1019.2
20260507185805 83 0 0.0 0.0 0.00 0.00 0.00 41 1019.1
20260507184303 83 0 0.0 0.0 0.00 0.00 0.00 41 1019.0
20260507182804 80 0 0.0 0.0 0.00 0.00 0.00 44 1018.8
20260507181304 84 0 0.0 0.0 0.00 0.00 0.00 38 1018.8
20260507175804 86 0 0.0 0.0 0.00 0.00 0.00 36 1018.6
20260507174303 86 0 0.0 0.0 0.00 0.00 0.00 35 1018.4
20260507172804 85 0 0.0 0.0 0.00 0.00 0.00 36 1018.3
20260507171305 89 0 0.0 0.0 0.00 0.00 0.00 34 1018.3
20260507165804 87 0 0.0 0.0 0.00 0.00 0.00 35 1018.1
20260507164304 87 0 0.0 0.0 0.00 0.00 0.00 36 1018.0
20260507162804 86 0 0.0 0.0 0.00 0.00 0.00 36 1017.8
20260507161306 87 0 0.0 0.0 0.00 0.00 0.00 36 1017.8
20260507155804 84 0 0.0 0.0 0.00 0.00 0.00 37 1017.7
20260507154306 83 0 0.0 0.0 0.00 0.00 0.00 37 1017.9
20260507152804 83 0 0.0 0.0 0.00 0.00 0.00 37 1018.0
20260507151305 83 0 0.0 0.0 0.00 0.00 0.00 35 1018.2
20260507145804 84 0 0.0 0.0 0.00 0.00 0.00 35 1018.3
20260507144304 90 0 0.0 0.0 0.00 0.00 0.00 31 1018.5
20260507142803 88 0 0.0 0.0 0.00 0.00 0.00 32 1018.5
20260507141305 85 0 0.0 0.0 0.00 0.00 0.00 33 1018.5
20260507135805 86 0 0.0 0.0 0.00 0.00 0.00 32 1018.5
20260507134303 90 0 0.0 0.0 0.00 0.00 0.00 29 1018.6
20260507132804 92 0 0.0 0.0 0.00 0.00 0.00 30 1018.6
20260507131304 90 0 0.0 0.0 0.00 0.00 0.00 31 1018.5
20260507125804 93 0 0.0 0.0 0.00 0.00 0.00 30 1018.5
20260507124305 94 0 0.0 0.0 0.00 0.00 0.00 29 1018.4
20260507122804 93 0 0.0 0.0 0.00 0.00 0.00 28 1018.4
20260507121304 92 0 0.0 0.0 0.00 0.00 0.00 28 1018.6
20260507115804 91 0 0.0 0.0 0.00 0.00 0.00 28 1018.6
20260507114304 89 0 0.0 0.0 0.00 0.00 0.00 30 1018.6
20260507112803 92 0 0.0 0.0 0.00 0.00 0.00 28 1018.5
20260507111304 90 0 0.0 0.0 0.00 0.00 0.00 27 1018.5
20260507105805 90 0 0.0 0.0 0.00 0.00 0.00 25 1018.4
20260507104304 89 0 0.0 0.0 0.00 0.00 0.00 26 1018.4
20260507102805 87 0 0.0 0.0 0.00 0.00 0.00 27 1018.4
20260507101305 90 0 0.0 0.0 0.00 0.00 0.00 26 1018.3
20260507095805 89 0 0.0 0.0 0.00 0.00 0.00 27 1018.3
20260507094304 88 0 0.0 0.0 0.00 0.00 0.00 26 1018.2
20260507092805 88 0 0.0 0.0 0.00 0.00 0.00 26 1018.3
20260507091304 89 0 0.0 0.0 0.00 0.00 0.00 27 1018.3
20260507085804 89 0 0.0 0.0 0.00 0.00 0.00 27 1018.5
20260507084305 90 0 0.0 0.0 0.00 0.00 0.00 29 1018.5
20260507082805 88 0 0.0 0.0 0.00 0.00 0.00 29 1018.6
20260507081305 89 0 0.0 0.0 0.00 0.00 0.00 31 1018.6
20260507075804 90 0 0.0 0.0 0.00 0.00 0.00 29 1018.5
20260507074303 89 0 0.0 0.0 0.00 0.00 0.00 32 1018.5
20260507072805 87 0 0.0 0.0 0.00 0.00 0.00 35 1018.5
20260507071303 85 0 0.0 0.0 0.00 0.00 0.00 37 1018.7
20260507065804 78 0 0.0 0.0 0.00 0.00 0.00 43 1018.7
20260507064305 77 0 0.0 0.0 0.00 0.00 0.00 43 1018.7